Time,TemperatureF,DewpointF,PressureIn,WindDirection,WindDirectionDegrees,WindSpeedMPH,WindSpeedGustMPH,Humidity,HourlyPrecipIn,Conditions,Clouds,dailyrainin,SoftwareType,DateUTC
2013-05-17 00:00:00,46.2,38.0,30.02,SSE,157,0.0,-999.0,72,-99.99,,,-99.99,MetarLogicWeatherSta,2013-05-17 04:00:00,
2013-05-17 00:01:00,46.2,38.0,30.01,SSE,157,0.0,-999.0,72,-99.99,,,-99.99,MetarLogicWeatherSta,2013-05-17 04:01:00,
2013-05-17 00:06:00,46.0,37.8,30.02,SSE,157,0.0,-999.0,72,-99.99,,,-99.99,MetarLogicWeatherSta,2013-05-17 04:06:00,
2013-05-17 00:11:00,45.7,37.7,30.02,SSE,157,0.0,-999.0,73,-99.99,,,-99.99,MetarLogicWeatherSta,2013-05-17 04:11:00,
2013-05-17 00:17:00,45.6,37.7,30.02,SSE,157,0.0,-999.0,73,-99.99,,,-99.99,MetarLogicWeatherSta,2013-05-17 04:17:00,
2013-05-17 00:22:00,45.2,37.6,30.02,SSE,157,0.0,-999.0,74,-99.99,,,-99.99,MetarLogicWeatherSta,2013-05-17 04:22:00,
2013-05-17 00:30:00,45.1,37.9,30.03,SSE,157,0.0,-999.0,75,-99.99,,,-99.99,MetarLogicWeatherSta,2013-05-17 04:30:00,
2013-05-17 00:35:00,45.0,38.9,30.02,SSE,157,0.0,-999.0,78,-99.99,,,-99.99,MetarLogicWeatherSta,2013-05-17 04:35:00,
2013-05-17 00:40:00,45.2,38.8,30.02,South,180,0.0,-999.0,77,-99.99,,,-99.99,MetarLogicWeatherSta,2013-05-17 04:40:00,
2013-05-17 00:46:00,45.2,38.7,30.02,South,185,0.0,0.0,77,-99.99,,,-99.99,MetarLogicWeatherSta,2013-05-17 04:46:00,
2013-05-17 00:51:00,45.0,38.4,30.03,South,180,0.0,-999.0,77,-99.99,,,-99.99,MetarLogicWeatherSta,2013-05-17 04:51:00,
2013-05-17 00:56:00,44.8,38.4,30.03,South,180,0.0,-999.0,78,-99.99,,,-99.99,MetarLogicWeatherSta,2013-05-17 04:56:00,
2013-05-17 01:01:00,44.8,38.5,30.03,SSE,157,0.0,-999.0,78,-99.99,,,-99.99,MetarLogicWeatherSta,2013-05-17 05:01:00,
2013-05-17 01:06:00,44.5,38.4,30.03,South,180,0.0,-999.0,78,-99.99,,,-99.99,MetarLogicWeatherSta,2013-05-17 05:06:00,
2013-05-17 01:11:00,44.4,38.6,30.03,SSE,157,0.0,-999.0,79,-99.99,,,-99.99,MetarLogicWeatherSta,2013-05-17 05:11:00,
2013-05-17 01:16:00,44.3,38.5,30.03,SSE,157,0.0,-999.0,79,-99.99,,,-99.99,MetarLogicWeatherSta,2013-05-17 05:16:00,
2013-05-17 01:21:00,44.1,38.2,30.03,SSE,157,0.0,-999.0,79,-99.99,,,-99.99,MetarLogicWeatherSta,2013-05-17 05:21:00,
2013-05-17 01:26:00,44.0,38.2,30.03,SSW,195,0.0,0.0,79,-99.99,,,-99.99,MetarLogicWeatherSta,2013-05-17 05:26:00,
2013-05-17 01:31:00,43.8,38.1,30.03,SE,135,0.0,-999.0,80,-99.99,,,-99.99,MetarLogicWeatherSta,2013-05-17 05:31:00,
2013-05-17 01:36:00,43.6,37.9,30.03,SSE,157,0.0,-999.0,80,-99.99,,,-99.99,MetarLogicWeatherSta,2013-05-17 05:36:00,
2013-05-17 01:41:00,43.3,37.7,30.03,SSE,157,0.0,-999.0,80,-99.99,,,-99.99,MetarLogicWeatherSta,2013-05-17 05:41:00,
2013-05-17 01:46:00,43.4,37.7,30.03,SSE,157,0.0,-999.0,80,-99.99,,,-99.99,MetarLogicWeatherSta,2013-05-17 05:46:00,
2013-05-17 01:51:00,43.1,37.5,30.04,SSE,157,0.0,-999.0,80,-99.99,,,-99.99,MetarLogicWeatherSta,2013-05-17 05:51:00,
2013-05-17 01:56:00,43.0,37.5,30.03,SE,135,0.0,-999.0,80,-99.99,,,-99.99,MetarLogicWeatherSta,2013-05-17 05:56:00,
2013-05-17 02:01:00,42.5,37.0,30.04,SSE,157,0.0,-999.0,80,-99.99,,,-99.99,MetarLogicWeatherSta,2013-05-17 06:01:00,
2013-05-17 02:06:00,42.2,36.9,30.04,SSE,157,0.0,-999.0,81,-99.99,,,-99.99,MetarLogicWeatherSta,2013-05-17 06:06:00,
2013-05-17 02:11:00,42.0,36.8,30.05,SSE,157,0.0,-999.0,81,-99.99,,,-99.99,MetarLogicWeatherSta,2013-05-17 06:11:00,
2013-05-17 02:16:00,42.0,36.8,30.05,SSE,157,0.0,-999.0,81,-99.99,,,-99.99,MetarLogicWeatherSta,2013-05-17 06:16:00,
2013-05-17 02:21:00,41.7,36.6,30.05,SSE,157,0.0,-999.0,81,-99.99,,,-99.99,MetarLogicWeatherSta,2013-05-17 06:21:00,
2013-05-17 02:26:00,41.7,36.8,30.05,SSE,157,0.0,-999.0,82,-99.99,,,-99.99,MetarLogicWeatherSta,2013-05-17 06:26:00,
2013-05-17 02:31:00,41.5,36.7,30.05,SSE,157,0.0,-999.0,82,-99.99,,,-99.99,MetarLogicWeatherSta,2013-05-17 06:31:00,
2013-05-17 02:36:00,41.3,36.3,30.05,SSE,157,0.0,-999.0,82,-99.99,,,-99.99,MetarLogicWeatherSta,2013-05-17 06:36:00,
2013-05-17 02:41:00,41.2,36.3,30.05,SSE,157,0.0,-999.0,82,-99.99,,,-99.99,MetarLogicWeatherSta,2013-05-17 06:41:00,
2013-05-17 02:46:00,41.1,36.5,30.05,SE,135,0.0,-999.0,83,-99.99,,,-99.99,MetarLogicWeatherSta,2013-05-17 06:46:00,
2013-05-17 02:51:00,40.7,36.0,30.06,SSE,157,0.0,-999.0,83,-99.99,,,-99.99,MetarLogicWeatherSta,2013-05-17 06:51:00,
2013-05-17 02:56:00,40.6,36.2,30.05,SSE,157,0.0,-999.0,84,-99.99,,,-99.99,MetarLogicWeatherSta,2013-05-17 06:56:00,
2013-05-17 03:01:00,40.4,36.0,30.05,SSE,157,0.0,-999.0,84,-99.99,,,-99.99,MetarLogicWeatherSta,2013-05-17 07:01:00,
2013-05-17 03:06:00,40.1,35.8,30.05,South,180,0.0,0.0,84,-99.99,,,-99.99,MetarLogicWeatherSta,2013-05-17 07:06:00,
2013-05-17 03:11:00,39.9,35.8,30.05,South,180,0.0,0.0,85,-99.99,,,-99.99,MetarLogicWeatherSta,2013-05-17 07:11:00,
2013-05-17 03:16:00,39.7,35.6,30.06,SSE,157,0.0,-999.0,85,-99.99,,,-99.99,MetarLogicWeatherSta,2013-05-17 07:16:00,
2013-05-17 03:21:00,39.7,35.7,30.06,SSE,157,0.0,-999.0,85,-99.99,,,-99.99,MetarLogicWeatherSta,2013-05-17 07:21:00,
2013-05-17 03:26:00,39.4,35.5,30.07,South,180,0.0,-999.0,85,-99.99,,,-99.99,MetarLogicWeatherSta,2013-05-17 07:26:00,
2013-05-17 03:31:00,39.6,35.8,30.07,SSE,157,0.0,-999.0,86,-99.99,,,-99.99,MetarLogicWeatherSta,2013-05-17 07:31:00,
2013-05-17 03:36:00,39.3,35.6,30.07,SSE,157,0.0,-999.0,86,-99.99,,,-99.99,MetarLogicWeatherSta,2013-05-17 07:36:00,
2013-05-17 03:41:00,39.0,35.3,30.07,SSE,157,0.0,-999.0,86,-99.99,,,-99.99,MetarLogicWeatherSta,2013-05-17 07:41:00,
2013-05-17 03:46:00,39.0,35.6,30.07,SSE,157,0.0,-999.0,87,-99.99,,,-99.99,MetarLogicWeatherSta,2013-05-17 07:46:00,
2013-05-17 03:51:00,38.6,35.1,30.07,SSE,157,0.0,-999.0,87,-99.99,,,-99.99,MetarLogicWeatherSta,2013-05-17 07:51:00,
2013-05-17 03:56:00,38.6,35.1,30.07,South,180,0.0,0.0,87,-99.99,,,-99.99,MetarLogicWeatherSta,2013-05-17 07:56:00,
2013-05-17 04:01:00,38.5,35.0,30.07,SSE,157,0.0,-999.0,87,-99.99,,,-99.99,MetarLogicWeatherSta,2013-05-17 08:01:00,
2013-05-17 04:07:00,38.3,35.0,30.07,South,173,0.0,0.0,87,-99.99,,,-99.99,MetarLogicWeatherSta,2013-05-17 08:07:00,
2013-05-17 04:12:00,38.1,34.9,30.08,SSE,157,0.0,-999.0,88,-99.99,,,-99.99,MetarLogicWeatherSta,2013-05-17 08:12:00,
2013-05-17 04:17:00,38.1,35.0,30.08,SSE,157,0.0,-999.0,88,-99.99,,,-99.99,MetarLogicWeatherSta,2013-05-17 08:17:00,
2013-05-17 04:22:00,38.0,34.8,30.09,SSE,157,0.0,-999.0,88,-99.99,,,-99.99,MetarLogicWeatherSta,2013-05-17 08:22:00,
2013-05-17 04:27:00,38.0,34.9,30.09,SSE,157,0.0,-999.0,88,-99.99,,,-99.99,MetarLogicWeatherSta,2013-05-17 08:27:00,
2013-05-17 04:32:00,37.7,34.6,30.09,SSE,157,0.0,-999.0,88,-99.99,,,-99.99,MetarLogicWeatherSta,2013-05-17 08:32:00,
2013-05-17 04:37:00,37.6,34.5,30.08,SSE,157,0.0,-999.0,88,-99.99,,,-99.99,MetarLogicWeatherSta,2013-05-17 08:37:00,
2013-05-17 04:42:00,37.5,34.5,30.09,SSE,157,0.0,-999.0,89,-99.99,,,-99.99,MetarLogicWeatherSta,2013-05-17 08:42:00,
2013-05-17 04:48:00,37.4,34.4,30.09,SSE,157,0.0,-999.0,88,-99.99,,,-99.99,MetarLogicWeatherSta,2013-05-17 08:48:00,
2013-05-17 04:53:00,37.2,34.5,30.09,SSE,157,0.0,-999.0,89,-99.99,,,-99.99,MetarLogicWeatherSta,2013-05-17 08:53:00,
2013-05-17 04:58:00,37.2,34.3,30.09,SSE,157,0.0,-999.0,89,-99.99,,,-99.99,MetarLogicWeatherSta,2013-05-17 08:58:00,
2013-05-17 05:03:00,36.8,34.0,30.09,SSE,157,0.0,-999.0,89,-99.99,,,-99.99,MetarLogicWeatherSta,2013-05-17 09:03:00,
2013-05-17 05:08:00,36.9,34.3,30.09,SSE,157,0.0,-999.0,90,-99.99,,,-99.99,MetarLogicWeatherSta,2013-05-17 09:08:00,
2013-05-17 05:13:00,36.7,34.0,30.10,SSE,157,0.0,-999.0,90,-99.99,,,-99.99,MetarLogicWeatherSta,2013-05-17 09:13:00,
2013-05-17 05:18:00,36.5,33.9,30.10,SSE,157,0.0,-999.0,90,-99.99,,,-99.99,MetarLogicWeatherSta,2013-05-17 09:18:00,
2013-05-17 05:23:00,36.6,34.0,30.11,SSE,157,0.0,-999.0,90,-99.99,,,-99.99,MetarLogicWeatherSta,2013-05-17 09:23:00,
2013-05-17 05:28:00,36.5,33.9,30.11,SSE,157,0.0,-999.0,90,-99.99,,,-99.99,MetarLogicWeatherSta,2013-05-17 09:28:00,
2013-05-17 05:33:00,36.3,33.8,30.11,SSE,157,0.0,-999.0,90,-99.99,,,-99.99,MetarLogicWeatherSta,2013-05-17 09:33:00,
2013-05-17 05:38:00,36.3,33.8,30.11,SSE,157,0.0,-999.0,90,-99.99,,,-99.99,MetarLogicWeatherSta,2013-05-17 09:38:00,
2013-05-17 05:43:00,36.2,33.7,30.11,SSE,157,0.0,-999.0,90,-99.99,,,-99.99,MetarLogicWeatherSta,2013-05-17 09:43:00,
2013-05-17 05:48:00,35.9,33.5,30.11,SE,135,0.0,-999.0,90,-99.99,,,-99.99,MetarLogicWeatherSta,2013-05-17 09:48:00,
2013-05-17 05:53:00,35.9,33.6,30.11,SSE,157,0.0,-999.0,91,-99.99,,,-99.99,MetarLogicWeatherSta,2013-05-17 09:53:00,
2013-05-17 05:58:00,35.9,33.5,30.12,SSE,157,0.0,-999.0,90,-99.99,,,-99.99,MetarLogicWeatherSta,2013-05-17 09:58:00,
2013-05-17 06:03:00,36.0,33.8,30.12,SSE,157,0.0,-999.0,91,-99.99,,,-99.99,MetarLogicWeatherSta,2013-05-17 10:03:00,
2013-05-17 06:08:00,36.1,33.8,30.13,SSE,157,0.0,-999.0,91,-99.99,,,-99.99,MetarLogicWeatherSta,2013-05-17 10:08:00,
2013-05-17 06:13:00,36.2,34.0,30.13,SSE,157,0.0,-999.0,91,-99.99,,,-99.99,MetarLogicWeatherSta,2013-05-17 10:13:00,
2013-05-17 06:18:00,36.2,34.1,30.13,ESE,112,0.0,-999.0,91,-99.99,,,-99.99,MetarLogicWeatherSta,2013-05-17 10:18:00,
2013-05-17 06:23:00,36.3,34.3,30.13,SSE,157,0.0,-999.0,92,-99.99,,,-99.99,MetarLogicWeatherSta,2013-05-17 10:23:00,
2013-05-17 06:28:00,36.4,34.4,30.13,SE,135,0.0,-999.0,92,-99.99,,,-99.99,MetarLogicWeatherSta,2013-05-17 10:28:00,
2013-05-17 06:33:00,37.0,35.2,30.13,SSE,157,0.0,-999.0,93,-99.99,,,-99.99,MetarLogicWeatherSta,2013-05-17 10:33:00,
2013-05-17 06:38:00,37.4,35.5,30.13,SE,135,0.0,-999.0,92,-99.99,,,-99.99,MetarLogicWeatherSta,2013-05-17 10:38:00,
2013-05-17 06:43:00,37.8,36.2,30.13,SSE,157,0.0,-999.0,93,-99.99,,,-99.99,MetarLogicWeatherSta,2013-05-17 10:43:00,
2013-05-17 06:48:00,38.2,36.6,30.13,SSE,157,0.0,-999.0,93,-99.99,,,-99.99,MetarLogicWeatherSta,2013-05-17 10:48:00,
2013-05-17 06:53:00,38.8,37.1,30.14,ESE,112,1.0,-999.0,93,-99.99,,,-99.99,MetarLogicWeatherSta,2013-05-17 10:53:00,
2013-05-17 06:58:00,39.0,37.3,30.14,SE,135,0.0,-999.0,93,-99.99,,,-99.99,MetarLogicWeatherSta,2013-05-17 10:58:00,
2013-05-17 07:03:00,39.4,37.8,30.14,SE,135,0.0,-999.0,93,-99.99,,,-99.99,MetarLogicWeatherSta,2013-05-17 11:03:00,
2013-05-17 07:08:00,39.8,38.1,30.14,SE,135,0.0,-999.0,93,-99.99,,,-99.99,MetarLogicWeatherSta,2013-05-17 11:08:00,
2013-05-17 07:13:00,40.3,38.7,30.14,SE,135,0.0,-999.0,94,-99.99,,,-99.99,MetarLogicWeatherSta,2013-05-17 11:13:00,
2013-05-17 07:18:00,40.7,39.1,30.15,SE,135,1.0,-999.0,93,-99.99,,,-99.99,MetarLogicWeatherSta,2013-05-17 11:18:00,
2013-05-17 07:23:00,41.3,39.8,30.15,SE,135,0.0,-999.0,94,-99.99,,,-99.99,MetarLogicWeatherSta,2013-05-17 11:23:00,
2013-05-17 07:28:00,41.8,40.3,30.15,SSE,157,0.0,-999.0,94,-99.99,,,-99.99,MetarLogicWeatherSta,2013-05-17 11:28:00,
2013-05-17 07:33:00,42.1,40.5,30.15,SSE,157,0.0,-999.0,94,-99.99,,,-99.99,MetarLogicWeatherSta,2013-05-17 11:33:00,
2013-05-17 07:38:00,42.6,40.7,30.15,SSE,157,0.0,-999.0,93,-99.99,,,-99.99,MetarLogicWeatherSta,2013-05-17 11:38:00,
2013-05-17 07:43:00,43.3,41.3,30.15,SSE,157,0.0,-999.0,92,-99.99,,,-99.99,MetarLogicWeatherSta,2013-05-17 11:43:00,
2013-05-17 07:48:00,43.5,41.6,30.15,SE,135,0.0,-999.0,92,-99.99,,,-99.99,MetarLogicWeatherSta,2013-05-17 11:48:00,
2013-05-17 07:53:00,44.2,41.9,30.15,SSE,157,0.0,-999.0,91,-99.99,,,-99.99,MetarLogicWeatherSta,2013-05-17 11:53:00,
2013-05-17 07:58:00,44.9,42.5,30.15,SE,135,0.0,-999.0,90,-99.99,,,-99.99,MetarLogicWeatherSta,2013-05-17 11:58:00,
2013-05-17 08:03:00,45.4,42.6,30.15,SE,135,0.0,-999.0,89,-99.99,,,-99.99,MetarLogicWeatherSta,2013-05-17 12:03:00,
2013-05-17 08:10:00,46.1,42.8,30.16,SE,135,0.0,-999.0,88,-99.99,,,-99.99,MetarLogicWeatherSta,2013-05-17 12:10:00,
2013-05-17 08:15:00,47.4,43.2,30.16,SE,135,1.0,-999.0,85,-99.99,,,-99.99,MetarLogicWeatherSta,2013-05-17 12:15:00,
2013-05-17 08:20:00,47.9,43.1,30.17,SE,135,0.0,-999.0,83,-99.99,,,-99.99,MetarLogicWeatherSta,2013-05-17 12:20:00,
2013-05-17 08:25:00,48.8,43.8,30.17,SE,135,0.0,-999.0,82,-99.99,,,-99.99,MetarLogicWeatherSta,2013-05-17 12:25:00,
2013-05-17 08:30:00,49.4,43.6,30.17,SSE,157,0.0,-999.0,80,-99.99,,,-99.99,MetarLogicWeatherSta,2013-05-17 12:30:00,
2013-05-17 08:35:00,50.1,43.9,30.17,SE,135,0.0,-999.0,79,-99.99,,,-99.99,MetarLogicWeatherSta,2013-05-17 12:35:00,
2013-05-17 08:40:00,50.6,43.5,30.17,SE,135,0.0,-999.0,76,-99.99,,,-99.99,MetarLogicWeatherSta,2013-05-17 12:40:00,
2013-05-17 08:45:00,51.6,43.6,30.17,ESE,112,1.0,-999.0,73,-99.99,,,-99.99,MetarLogicWeatherSta,2013-05-17 12:45:00,
2013-05-17 08:51:00,51.9,42.4,30.17,SE,144,2.5,6.0,69,-99.99,,,-99.99,MetarLogicWeatherSta,2013-05-17 12:51:00,
2013-05-17 08:56:00,52.0,41.9,30.18,SE,141,1.4,6.0,68,-99.99,,,-99.99,MetarLogicWeatherSta,2013-05-17 12:56:00,
2013-05-17 09:01:00,52.3,42.5,30.17,SSE,168,0.0,6.0,69,-99.99,,,-99.99,MetarLogicWeatherSta,2013-05-17 13:01:00,
2013-05-17 09:06:00,52.9,42.7,30.18,SSE,157,0.0,-999.0,68,-99.99,,,-99.99,MetarLogicWeatherSta,2013-05-17 13:06:00,
2013-05-17 09:11:00,53.2,42.8,30.18,South,180,1.0,-999.0,67,-99.99,,,-99.99,MetarLogicWeatherSta,2013-05-17 13:11:00,
2013-05-17 09:16:00,53.6,42.3,30.18,South,180,0.0,-999.0,65,-99.99,,,-99.99,MetarLogicWeatherSta,2013-05-17 13:16:00,
2013-05-17 09:21:00,53.9,42.8,30.18,NE,45,6.0,-999.0,65,-99.99,,,-99.99,MetarLogicWeatherSta,2013-05-17 13:21:00,
2013-05-17 09:29:00,54.2,42.7,30.18,SSE,157,0.0,-999.0,64,-99.99,,,-99.99,MetarLogicWeatherSta,2013-05-17 13:29:00,
2013-05-17 09:34:00,54.2,42.4,30.18,South,180,0.0,-999.0,64,-99.99,,,-99.99,MetarLogicWeatherSta,2013-05-17 13:34:00,
2013-05-17 09:39:00,54.6,42.2,30.18,SE,135,0.0,-999.0,62,-99.99,,,-99.99,MetarLogicWeatherSta,2013-05-17 13:39:00,
2013-05-17 09:44:00,54.9,41.2,30.18,SW,225,0.0,-999.0,59,-99.99,,,-99.99,MetarLogicWeatherSta,2013-05-17 13:44:00,
2013-05-17 09:49:00,54.9,41.4,30.19,SSE,157,0.0,-999.0,60,-99.99,,,-99.99,MetarLogicWeatherSta,2013-05-17 13:49:00,
2013-05-17 09:54:00,55.3,43.1,30.19,NNE,22,1.0,-999.0,63,-99.99,,,-99.99,MetarLogicWeatherSta,2013-05-17 13:54:00,
2013-05-17 09:59:00,55.7,43.5,30.19,SE,135,3.0,-999.0,63,-99.99,,,-99.99,MetarLogicWeatherSta,2013-05-17 13:59:00,
2013-05-17 10:04:00,56.0,41.9,30.19,SSE,157,0.0,-999.0,58,-99.99,,,-99.99,MetarLogicWeatherSta,2013-05-17 14:04:00,
2013-05-17 10:09:00,56.0,42.6,30.19,SSE,157,0.0,-999.0,60,-99.99,,,-99.99,MetarLogicWeatherSta,2013-05-17 14:09:00,
2013-05-17 10:14:00,56.4,42.1,30.19,SE,135,1.0,-999.0,58,-99.99,,,-99.99,MetarLogicWeatherSta,2013-05-17 14:14:00,
2013-05-17 10:19:00,56.8,42.8,30.19,SE,135,0.0,-999.0,59,-99.99,,,-99.99,MetarLogicWeatherSta,2013-05-17 14:19:00,
2013-05-17 10:24:00,56.9,42.3,30.19,SSE,157,0.0,-999.0,57,-99.99,,,-99.99,MetarLogicWeatherSta,2013-05-17 14:24:00,
2013-05-17 10:29:00,56.6,42.6,30.19,East,90,4.0,-999.0,59,-99.99,,,-99.99,MetarLogicWeatherSta,2013-05-17 14:29:00,
2013-05-17 10:34:00,56.2,41.8,30.19,SE,135,0.0,-999.0,58,-99.99,,,-99.99,MetarLogicWeatherSta,2013-05-17 14:34:00,
2013-05-17 10:39:00,55.6,41.1,30.20,ESE,112,0.0,-999.0,58,-99.99,,,-99.99,MetarLogicWeatherSta,2013-05-17 14:39:00,
2013-05-17 10:44:00,56.1,42.8,30.20,East,90,4.0,-999.0,60,-99.99,,,-99.99,MetarLogicWeatherSta,2013-05-17 14:44:00,
2013-05-17 10:49:00,56.8,42.2,30.20,ENE,67,7.0,-999.0,57,-99.99,,,-99.99,MetarLogicWeatherSta,2013-05-17 14:49:00,
2013-05-17 10:54:00,56.5,41.6,30.20,South,180,0.0,-999.0,57,-99.99,,,-99.99,MetarLogicWeatherSta,2013-05-17 14:54:00,
2013-05-17 10:59:00,56.9,43.1,30.21,East,90,3.0,-999.0,59,-99.99,,,-99.99,MetarLogicWeatherSta,2013-05-17 14:59:00,
2013-05-17 11:04:00,57.3,42.6,30.21,East,90,1.0,-999.0,57,-99.99,,,-99.99,MetarLogicWeatherSta,2013-05-17 15:04:00,
2013-05-17 11:09:00,57.6,42.2,30.21,SE,135,0.0,-999.0,56,-99.99,,,-99.99,MetarLogicWeatherSta,2013-05-17 15:09:00,
2013-05-17 11:14:00,57.9,43.1,30.21,East,90,1.0,-999.0,57,-99.99,,,-99.99,MetarLogicWeatherSta,2013-05-17 15:14:00,
2013-05-17 11:19:00,58.2,42.4,30.21,South,180,0.0,-999.0,55,-99.99,,,-99.99,MetarLogicWeatherSta,2013-05-17 15:19:00,
2013-05-17 11:24:00,58.9,43.6,30.21,South,180,0.0,-999.0,56,-99.99,,,-99.99,MetarLogicWeatherSta,2013-05-17 15:24:00,
2013-05-17 11:29:00,58.8,43.2,30.21,South,180,0.0,-999.0,55,-99.99,,,-99.99,MetarLogicWeatherSta,2013-05-17 15:29:00,
2013-05-17 11:34:00,58.9,43.7,30.21,South,180,0.0,-999.0,56,-99.99,,,-99.99,MetarLogicWeatherSta,2013-05-17 15:34:00,
2013-05-17 11:39:00,58.9,42.5,30.21,WSW,247,3.0,-999.0,54,-99.99,,,-99.99,MetarLogicWeatherSta,2013-05-17 15:39:00,
2013-05-17 11:44:00,58.8,41.9,30.21,South,180,0.0,-999.0,52,-99.99,,,-99.99,MetarLogicWeatherSta,2013-05-17 15:44:00,
2013-05-17 11:49:00,58.7,42.6,30.21,South,180,0.0,-999.0,54,-99.99,,,-99.99,MetarLogicWeatherSta,2013-05-17 15:49:00,
2013-05-17 11:54:00,59.1,42.2,30.21,East,90,1.0,-999.0,53,-99.99,,,-99.99,MetarLogicWeatherSta,2013-05-17 15:54:00,
2013-05-17 12:00:00,58.9,42.1,30.20,SSE,157,0.0,-999.0,53,-99.99,,,-99.99,MetarLogicWeatherSta,2013-05-17 16:00:00,
2013-05-17 12:05:00,59.7,42.2,30.20,SW,225,4.0,-999.0,52,-99.99,,,-99.99,MetarLogicWeatherSta,2013-05-17 16:05:00,
2013-05-17 12:10:00,60.2,42.8,30.20,SW,225,3.0,-999.0,52,-99.99,,,-99.99,MetarLogicWeatherSta,2013-05-17 16:10:00,
2013-05-17 12:15:00,60.4,42.9,30.20,SSE,157,0.0,-999.0,52,-99.99,,,-99.99,MetarLogicWeatherSta,2013-05-17 16:15:00,
2013-05-17 12:20:00,61.2,45.5,30.19,East,90,1.0,-999.0,55,-99.99,,,-99.99,MetarLogicWeatherSta,2013-05-17 16:20:00,
2013-05-17 12:25:00,62.0,42.2,30.19,NE,45,9.0,-999.0,47,-99.99,,,-99.99,MetarLogicWeatherSta,2013-05-17 16:25:00,
2013-05-17 12:30:00,61.0,42.2,30.19,SSE,157,0.0,-999.0,49,-99.99,,,-99.99,MetarLogicWeatherSta,2013-05-17 16:30:00,
2013-05-17 12:35:00,61.3,42.7,30.19,SW,225,0.0,-999.0,50,-99.99,,,-99.99,MetarLogicWeatherSta,2013-05-17 16:35:00,
2013-05-17 12:40:00,61.8,43.1,30.19,South,180,0.0,-999.0,50,-99.99,,,-99.99,MetarLogicWeatherSta,2013-05-17 16:40:00,
2013-05-17 12:45:00,61.8,41.1,30.19,SE,135,0.0,-999.0,46,-99.99,,,-99.99,MetarLogicWeatherSta,2013-05-17 16:45:00,
2013-05-17 12:50:00,62.0,42.3,30.19,SW,225,1.0,-999.0,47,-99.99,,,-99.99,MetarLogicWeatherSta,2013-05-17 16:50:00,
2013-05-17 12:55:00,61.8,42.7,30.19,SE,135,0.0,-999.0,49,-99.99,,,-99.99,MetarLogicWeatherSta,2013-05-17 16:55:00,
2013-05-17 13:00:00,61.9,43.6,30.19,South,180,0.0,-999.0,50,-99.99,,,-99.99,MetarLogicWeatherSta,2013-05-17 17:00:00,
2013-05-17 13:05:00,62.3,43.2,30.19,South,180,0.0,-999.0,49,-99.99,,,-99.99,MetarLogicWeatherSta,2013-05-17 17:05:00,
2013-05-17 13:10:00,62.2,42.8,30.19,NE,45,1.0,-999.0,48,-99.99,,,-99.99,MetarLogicWeatherSta,2013-05-17 17:10:00,
2013-05-17 13:15:00,62.3,43.2,30.19,East,90,3.0,-999.0,49,-99.99,,,-99.99,MetarLogicWeatherSta,2013-05-17 17:15:00,
2013-05-17 13:20:00,62.5,41.5,30.19,SSW,202,1.0,-999.0,45,-99.99,,,-99.99,MetarLogicWeatherSta,2013-05-17 17:20:00,
2013-05-17 13:25:00,62.7,42.9,30.19,ESE,112,0.0,-999.0,47,-99.99,,,-99.99,MetarLogicWeatherSta,2013-05-17 17:25:00,
2013-05-17 13:30:00,63.0,43.1,30.19,SSE,157,0.0,-999.0,47,-99.99,,,-99.99,MetarLogicWeatherSta,2013-05-17 17:30:00,
2013-05-17 13:35:00,63.6,45.4,30.18,SSE,157,1.0,-999.0,51,-99.99,,,-99.99,MetarLogicWeatherSta,2013-05-17 17:35:00,
2013-05-17 13:40:00,64.4,43.3,30.19,South,180,0.0,-999.0,45,-99.99,,,-99.99,MetarLogicWeatherSta,2013-05-17 17:40:00,
2013-05-17 13:45:00,64.5,43.0,30.19,East,90,1.0,-999.0,45,-99.99,,,-99.99,MetarLogicWeatherSta,2013-05-17 17:45:00,
2013-05-17 13:52:00,64.4,43.6,30.19,ESE,115,2.8,9.0,46,-99.99,,,-99.99,MetarLogicWeatherSta,2013-05-17 17:52:00,
2013-05-17 13:57:00,64.3,43.5,30.19,SSE,148,1.7,7.0,46,-99.99,,,-99.99,MetarLogicWeatherSta,2013-05-17 17:57:00,
2013-05-17 14:02:00,64.6,43.8,30.19,SSE,157,0.0,-999.0,46,-99.99,,,-99.99,MetarLogicWeatherSta,2013-05-17 18:02:00,
2013-05-17 14:07:00,64.6,42.4,30.19,ESE,112,1.0,-999.0,43,-99.99,,,-99.99,MetarLogicWeatherSta,2013-05-17 18:07:00,
2013-05-17 14:12:00,64.5,43.2,30.19,SSE,157,0.0,-999.0,45,-99.99,,,-99.99,MetarLogicWeatherSta,2013-05-17 18:12:00,
2013-05-17 14:17:00,64.1,41.8,30.19,SW,225,3.0,-999.0,43,-99.99,,,-99.99,MetarLogicWeatherSta,2013-05-17 18:17:00,
2013-05-17 14:22:00,63.8,41.5,30.18,West,270,3.0,-999.0,43,-99.99,,,-99.99,MetarLogicWeatherSta,2013-05-17 18:22:00,
2013-05-17 14:27:00,63.3,40.8,30.19,ESE,112,3.0,-999.0,43,-99.99,,,-99.99,MetarLogicWeatherSta,2013-05-17 18:27:00,
2013-05-17 14:32:00,63.0,39.8,30.19,ENE,67,6.0,-999.0,42,-99.99,,,-99.99,MetarLogicWeatherSta,2013-05-17 18:32:00,
2013-05-17 14:37:00,63.0,40.9,30.18,SE,135,1.0,-999.0,43,-99.99,,,-99.99,MetarLogicWeatherSta,2013-05-17 18:37:00,
2013-05-17 14:44:00,63.1,41.9,30.18,SSE,157,0.0,-999.0,45,-99.99,,,-99.99,MetarLogicWeatherSta,2013-05-17 18:44:00,
2013-05-17 14:49:00,63.5,41.3,30.18,SSE,157,0.0,-999.0,43,-99.99,,,-99.99,MetarLogicWeatherSta,2013-05-17 18:49:00,
2013-05-17 14:54:00,63.7,41.9,30.19,East,90,0.0,-999.0,44,-99.99,,,-99.99,MetarLogicWeatherSta,2013-05-17 18:54:00,
2013-05-17 14:59:00,63.7,41.5,30.19,WSW,247,0.0,-999.0,43,-99.99,,,-99.99,MetarLogicWeatherSta,2013-05-17 18:59:00,
2013-05-17 15:04:00,63.7,41.1,30.19,NNE,22,1.0,-999.0,43,-99.99,,,-99.99,MetarLogicWeatherSta,2013-05-17 19:04:00,
2013-05-17 15:09:00,63.5,39.1,30.19,SW,225,3.0,-999.0,40,-99.99,,,-99.99,MetarLogicWeatherSta,2013-05-17 19:09:00,
2013-05-17 15:14:00,63.0,38.2,30.19,South,180,0.0,-999.0,39,-99.99,,,-99.99,MetarLogicWeatherSta,2013-05-17 19:14:00,
2013-05-17 15:19:00,62.7,39.9,30.19,South,180,0.0,-999.0,42,-99.99,,,-99.99,MetarLogicWeatherSta,2013-05-17 19:19:00,
2013-05-17 15:24:00,62.8,38.3,30.19,SW,225,4.0,-999.0,39,-99.99,,,-99.99,MetarLogicWeatherSta,2013-05-17 19:24:00,
2013-05-17 15:29:00,62.9,39.9,30.19,SW,225,4.0,-999.0,42,-99.99,,,-99.99,MetarLogicWeatherSta,2013-05-17 19:29:00,
2013-05-17 15:35:00,63.5,39.1,30.19,SSW,193,0.1,9.0,40,-99.99,,,-99.99,MetarLogicWeatherSta,2013-05-17 19:35:00,
2013-05-17 15:40:00,63.7,37.0,30.18,SE,135,0.0,-999.0,36,-99.99,,,-99.99,MetarLogicWeatherSta,2013-05-17 19:40:00,
2013-05-17 15:45:00,63.8,39.5,30.18,SW,225,1.0,-999.0,40,-99.99,,,-99.99,MetarLogicWeatherSta,2013-05-17 19:45:00,
2013-05-17 15:50:00,63.8,37.8,30.19,East,90,4.0,-999.0,37,-99.99,,,-99.99,MetarLogicWeatherSta,2013-05-17 19:50:00,
2013-05-17 15:55:00,64.1,40.1,30.19,SSW,202,4.0,-999.0,41,-99.99,,,-99.99,MetarLogicWeatherSta,2013-05-17 19:55:00,
2013-05-17 16:00:00,63.5,38.9,30.18,South,180,0.0,-999.0,39,-99.99,,,-99.99,MetarLogicWeatherSta,2013-05-17 20:00:00,
2013-05-17 16:05:00,63.4,39.5,30.18,South,180,1.0,-999.0,40,-99.99,,,-99.99,MetarLogicWeatherSta,2013-05-17 20:05:00,
2013-05-17 16:10:00,63.0,39.5,30.18,SSW,202,1.0,-999.0,41,-99.99,,,-99.99,MetarLogicWeatherSta,2013-05-17 20:10:00,
2013-05-17 16:15:00,63.0,41.2,30.18,SSW,202,3.0,-999.0,44,-99.99,,,-99.99,MetarLogicWeatherSta,2013-05-17 20:15:00,
2013-05-17 16:20:00,63.1,40.7,30.18,South,180,1.0,-999.0,43,-99.99,,,-99.99,MetarLogicWeatherSta,2013-05-17 20:20:00,
2013-05-17 16:25:00,62.7,40.5,30.18,WSW,247,3.0,-999.0,43,-99.99,,,-99.99,MetarLogicWeatherSta,2013-05-17 20:25:00,
2013-05-17 16:30:00,62.4,39.8,30.18,South,180,1.0,-999.0,43,-99.99,,,-99.99,MetarLogicWeatherSta,2013-05-17 20:30:00,
2013-05-17 16:35:00,62.5,40.6,30.18,SE,135,0.0,-999.0,44,-99.99,,,-99.99,MetarLogicWeatherSta,2013-05-17 20:35:00,
2013-05-17 16:40:00,62.3,38.5,30.18,WSW,247,4.0,-999.0,40,-99.99,,,-99.99,MetarLogicWeatherSta,2013-05-17 20:40:00,
2013-05-17 16:45:00,62.4,39.8,30.18,SSE,157,0.0,-999.0,43,-99.99,,,-99.99,MetarLogicWeatherSta,2013-05-17 20:45:00,
2013-05-17 16:50:00,62.3,41.2,30.18,South,180,0.0,-999.0,45,-99.99,,,-99.99,MetarLogicWeatherSta,2013-05-17 20:50:00,
2013-05-17 16:55:00,62.2,40.8,30.17,WSW,247,3.0,-999.0,45,-99.99,,,-99.99,MetarLogicWeatherSta,2013-05-17 20:55:00,
2013-05-17 17:00:00,62.2,40.5,30.18,South,180,3.0,-999.0,44,-99.99,,,-99.99,MetarLogicWeatherSta,2013-05-17 21:00:00,
2013-05-17 17:05:00,62.2,39.2,30.18,SW,225,3.0,-999.0,42,-99.99,,,-99.99,MetarLogicWeatherSta,2013-05-17 21:05:00,
2013-05-17 17:10:00,62.2,39.6,30.18,West,270,3.0,-999.0,43,-99.99,,,-99.99,MetarLogicWeatherSta,2013-05-17 21:10:00,
2013-05-17 17:15:00,62.0,38.8,30.18,WSW,247,6.0,-999.0,41,-99.99,,,-99.99,MetarLogicWeatherSta,2013-05-17 21:15:00,
2013-05-17 17:20:00,61.6,38.7,30.18,SSE,157,0.0,-999.0,42,-99.99,,,-99.99,MetarLogicWeatherSta,2013-05-17 21:20:00,
2013-05-17 17:25:00,61.8,40.2,30.18,SE,135,0.0,-999.0,44,-99.99,,,-99.99,MetarLogicWeatherSta,2013-05-17 21:25:00,
2013-05-17 17:30:00,61.8,37.9,30.19,SSW,202,1.0,-999.0,40,-99.99,,,-99.99,MetarLogicWeatherSta,2013-05-17 21:30:00,
2013-05-17 17:35:00,61.7,37.5,30.19,South,180,0.0,-999.0,40,-99.99,,,-99.99,MetarLogicWeatherSta,2013-05-17 21:35:00,
2013-05-17 17:40:00,61.8,37.8,30.19,South,180,3.0,-999.0,40,-99.99,,,-99.99,MetarLogicWeatherSta,2013-05-17 21:40:00,
2013-05-17 17:45:00,61.7,38.8,30.18,West,270,4.0,-999.0,42,-99.99,,,-99.99,MetarLogicWeatherSta,2013-05-17 21:45:00,
2013-05-17 17:50:00,61.7,38.3,30.19,South,180,0.0,-999.0,41,-99.99,,,-99.99,MetarLogicWeatherSta,2013-05-17 21:50:00,
2013-05-17 17:55:00,61.7,37.4,30.19,SSW,202,0.0,-999.0,40,-99.99,,,-99.99,MetarLogicWeatherSta,2013-05-17 21:55:00,
2013-05-17 18:00:00,61.8,38.4,30.18,SSW,202,0.0,-999.0,41,-99.99,,,-99.99,MetarLogicWeatherSta,2013-05-17 22:00:00,
2013-05-17 18:07:00,61.8,37.7,30.18,South,180,0.0,-999.0,40,-99.99,,,-99.99,MetarLogicWeatherSta,2013-05-17 22:07:00,
2013-05-17 18:12:00,61.6,37.2,30.18,SSE,157,0.0,-999.0,39,-99.99,,,-99.99,MetarLogicWeatherSta,2013-05-17 22:12:00,
2013-05-17 18:17:00,61.6,37.6,30.18,SE,135,0.0,-999.0,40,-99.99,,,-99.99,MetarLogicWeatherSta,2013-05-17 22:17:00,
2013-05-17 18:22:00,61.5,38.6,30.18,SW,225,3.0,-999.0,42,-99.99,,,-99.99,MetarLogicWeatherSta,2013-05-17 22:22:00,
2013-05-17 18:27:00,61.4,38.7,30.18,SE,135,1.0,-999.0,42,-99.99,,,-99.99,MetarLogicWeatherSta,2013-05-17 22:27:00,
2013-05-17 18:32:00,61.4,38.8,30.19,SE,135,1.0,-999.0,42,-99.99,,,-99.99,MetarLogicWeatherSta,2013-05-17 22:32:00,
2013-05-17 18:37:00,61.3,36.4,30.18,SW,225,3.0,-999.0,39,-99.99,,,-99.99,MetarLogicWeatherSta,2013-05-17 22:37:00,
2013-05-17 18:42:00,61.1,34.2,30.19,SSW,202,1.0,-999.0,35,-99.99,,,-99.99,MetarLogicWeatherSta,2013-05-17 22:42:00,
2013-05-17 18:47:00,61.1,34.4,30.18,SSE,157,0.0,-999.0,36,-99.99,,,-99.99,MetarLogicWeatherSta,2013-05-17 22:47:00,
2013-05-17 18:52:00,61.3,36.6,30.18,SSE,157,0.0,-999.0,39,-99.99,,,-99.99,MetarLogicWeatherSta,2013-05-17 22:52:00,
2013-05-17 18:57:00,61.0,35.9,30.18,SE,135,0.0,-999.0,38,-99.99,,,-99.99,MetarLogicWeatherSta,2013-05-17 22:57:00,
2013-05-17 19:02:00,61.0,35.9,30.18,SSE,157,0.0,-999.0,38,-99.99,,,-99.99,MetarLogicWeatherSta,2013-05-17 23:02:00,
2013-05-17 19:07:00,60.8,35.9,30.18,East,90,3.0,-999.0,39,-99.99,,,-99.99,MetarLogicWeatherSta,2013-05-17 23:07:00,
2013-05-17 19:12:00,60.6,36.2,30.18,SSE,157,0.0,-999.0,39,-99.99,,,-99.99,MetarLogicWeatherSta,2013-05-17 23:12:00,
2013-05-17 19:17:00,60.6,35.5,30.19,ESE,112,0.0,-999.0,38,-99.99,,,-99.99,MetarLogicWeatherSta,2013-05-17 23:17:00,
2013-05-17 19:22:00,60.7,36.5,30.18,SSE,157,0.0,-999.0,40,-99.99,,,-99.99,MetarLogicWeatherSta,2013-05-17 23:22:00,
2013-05-17 19:27:00,60.4,36.7,30.18,SSE,157,0.0,-999.0,40,-99.99,,,-99.99,MetarLogicWeatherSta,2013-05-17 23:27:00,
2013-05-17 19:32:00,60.0,36.7,30.18,SSE,157,0.0,-999.0,41,-99.99,,,-99.99,MetarLogicWeatherSta,2013-05-17 23:32:00,
2013-05-17 19:37:00,59.7,36.6,30.19,SSE,157,0.0,-999.0,41,-99.99,,,-99.99,MetarLogicWeatherSta,2013-05-17 23:37:00,
2013-05-17 19:42:00,59.2,36.2,30.19,SSE,157,0.0,-999.0,41,-99.99,,,-99.99,MetarLogicWeatherSta,2013-05-17 23:42:00,
2013-05-17 19:47:00,58.8,36.0,30.19,SSE,157,0.0,-999.0,42,-99.99,,,-99.99,MetarLogicWeatherSta,2013-05-17 23:47:00,
2013-05-17 19:52:00,58.5,36.6,30.19,SSE,157,0.0,-999.0,43,-99.99,,,-99.99,MetarLogicWeatherSta,2013-05-17 23:52:00,
2013-05-17 19:57:00,58.2,38.4,30.19,SSE,157,0.0,-999.0,47,-99.99,,,-99.99,MetarLogicWeatherSta,2013-05-17 23:57:00,
2013-05-17 20:03:00,57.7,38.1,30.19,SSE,157,0.0,-999.0,47,-99.99,,,-99.99,MetarLogicWeatherSta,2013-05-18 00:03:00,
2013-05-17 20:08:00,56.8,38.0,30.19,SSE,157,0.0,-999.0,49,-99.99,,,-99.99,MetarLogicWeatherSta,2013-05-18 00:08:00,
2013-05-17 20:13:00,56.0,37.8,30.19,SSE,157,0.0,-999.0,50,-99.99,,,-99.99,MetarLogicWeatherSta,2013-05-18 00:13:00,
2013-05-17 20:18:00,55.5,37.8,30.19,SSE,157,0.0,-999.0,51,-99.99,,,-99.99,MetarLogicWeatherSta,2013-05-18 00:18:00,
2013-05-17 20:23:00,54.8,37.9,30.19,SSE,157,0.0,-999.0,52,-99.99,,,-99.99,MetarLogicWeatherSta,2013-05-18 00:23:00,
2013-05-17 20:28:00,54.1,37.8,30.19,SSE,157,0.0,-999.0,53,-99.99,,,-99.99,MetarLogicWeatherSta,2013-05-18 00:28:00,
2013-05-17 20:33:00,53.4,37.4,30.19,SSE,157,0.0,-999.0,54,-99.99,,,-99.99,MetarLogicWeatherSta,2013-05-18 00:33:00,
2013-05-17 20:38:00,52.8,37.1,30.19,SSE,157,0.0,-999.0,54,-99.99,,,-99.99,MetarLogicWeatherSta,2013-05-18 00:38:00,
2013-05-17 20:43:00,52.5,37.2,30.19,SSE,157,0.0,-999.0,55,-99.99,,,-99.99,MetarLogicWeatherSta,2013-05-18 00:43:00,
2013-05-17 20:48:00,51.8,36.6,30.19,SSE,157,0.0,-999.0,55,-99.99,,,-99.99,MetarLogicWeatherSta,2013-05-18 00:48:00,
2013-05-17 20:53:00,51.2,37.0,30.19,SE,135,0.0,-999.0,57,-99.99,,,-99.99,MetarLogicWeatherSta,2013-05-18 00:53:00,
2013-05-17 20:58:00,50.7,37.2,30.19,SSE,157,0.0,-999.0,59,-99.99,,,-99.99,MetarLogicWeatherSta,2013-05-18 00:58:00,
2013-05-17 21:03:00,50.3,36.9,30.20,SSE,157,0.0,-999.0,59,-99.99,,,-99.99,MetarLogicWeatherSta,2013-05-18 01:03:00,
2013-05-17 21:08:00,50.0,37.2,30.20,SSE,157,0.0,-999.0,61,-99.99,,,-99.99,MetarLogicWeatherSta,2013-05-18 01:08:00,
2013-05-17 21:13:00,49.5,37.0,30.20,SSE,157,0.0,-999.0,61,-99.99,,,-99.99,MetarLogicWeatherSta,2013-05-18 01:13:00,
2013-05-17 21:18:00,49.2,37.2,30.20,SSE,157,0.0,-999.0,63,-99.99,,,-99.99,MetarLogicWeatherSta,2013-05-18 01:18:00,
2013-05-17 21:23:00,48.8,37.0,30.21,SSE,157,0.0,-999.0,63,-99.99,,,-99.99,MetarLogicWeatherSta,2013-05-18 01:23:00,
2013-05-17 21:31:00,48.3,36.8,30.21,SSE,157,0.0,-999.0,64,-99.99,,,-99.99,MetarLogicWeatherSta,2013-05-18 01:31:00,
2013-05-17 21:36:00,47.9,37.0,30.21,SSE,157,0.0,-999.0,65,-99.99,,,-99.99,MetarLogicWeatherSta,2013-05-18 01:36:00,
2013-05-17 21:41:00,47.5,36.9,30.21,SSE,157,0.0,-999.0,66,-99.99,,,-99.99,MetarLogicWeatherSta,2013-05-18 01:41:00,
2013-05-17 21:46:00,47.0,36.9,30.21,SSE,157,0.0,-999.0,67,-99.99,,,-99.99,MetarLogicWeatherSta,2013-05-18 01:46:00,
2013-05-17 21:51:00,46.8,37.2,30.21,SE,135,0.0,-999.0,68,-99.99,,,-99.99,MetarLogicWeatherSta,2013-05-18 01:51:00,
2013-05-17 21:56:00,46.6,37.2,30.21,SSE,157,0.0,-999.0,69,-99.99,,,-99.99,MetarLogicWeatherSta,2013-05-18 01:56:00,
2013-05-17 22:01:00,46.4,37.0,30.21,SSE,157,0.0,-999.0,69,-99.99,,,-99.99,MetarLogicWeatherSta,2013-05-18 02:01:00,
2013-05-17 22:06:00,46.2,37.1,30.21,South,180,0.0,0.0,70,-99.99,,,-99.99,MetarLogicWeatherSta,2013-05-18 02:06:00,
2013-05-17 22:11:00,46.0,37.6,30.22,South,180,0.0,-999.0,72,-99.99,,,-99.99,MetarLogicWeatherSta,2013-05-18 02:11:00,
2013-05-17 22:16:00,45.8,37.5,30.22,SSE,157,0.0,-999.0,72,-99.99,,,-99.99,MetarLogicWeatherSta,2013-05-18 02:16:00,
2013-05-17 22:21:00,45.7,37.6,30.22,SSE,157,0.0,-999.0,73,-99.99,,,-99.99,MetarLogicWeatherSta,2013-05-18 02:21:00,
2013-05-17 22:26:00,45.6,37.4,30.21,SSE,157,0.0,-999.0,72,-99.99,,,-99.99,MetarLogicWeatherSta,2013-05-18 02:26:00,
2013-05-17 22:32:00,45.4,37.4,30.21,SSE,157,0.0,-999.0,73,-99.99,,,-99.99,MetarLogicWeatherSta,2013-05-18 02:32:00,
2013-05-17 22:37:00,44.7,36.9,30.22,SSE,157,0.0,-999.0,73,-99.99,,,-99.99,MetarLogicWeatherSta,2013-05-18 02:37:00,
2013-05-17 22:42:00,44.5,37.1,30.21,South,180,0.0,-999.0,74,-99.99,,,-99.99,MetarLogicWeatherSta,2013-05-18 02:42:00,
2013-05-17 22:48:00,44.6,37.2,30.22,SSE,157,0.0,-999.0,74,-99.99,,,-99.99,MetarLogicWeatherSta,2013-05-18 02:48:00,
2013-05-17 22:53:00,44.0,36.9,30.22,SSE,157,0.0,-999.0,75,-99.99,,,-99.99,MetarLogicWeatherSta,2013-05-18 02:53:00,
2013-05-17 22:58:00,43.9,37.2,30.22,SSE,157,0.0,-999.0,77,-99.99,,,-99.99,MetarLogicWeatherSta,2013-05-18 02:58:00,
2013-05-17 23:03:00,44.0,37.4,30.22,SSE,157,0.0,-999.0,77,-99.99,,,-99.99,MetarLogicWeatherSta,2013-05-18 03:03:00,
2013-05-17 23:08:00,43.8,37.0,30.22,SSE,157,0.0,-999.0,77,-99.99,,,-99.99,MetarLogicWeatherSta,2013-05-18 03:08:00,
2013-05-17 23:13:00,43.7,37.0,30.21,SSE,157,0.0,-999.0,77,-99.99,,,-99.99,MetarLogicWeatherSta,2013-05-18 03:13:00,
2013-05-17 23:18:00,43.7,37.2,30.22,SSE,157,0.0,-999.0,77,-99.99,,,-99.99,MetarLogicWeatherSta,2013-05-18 03:18:00,
2013-05-17 23:23:00,43.4,37.2,30.22,SSE,157,0.0,-999.0,78,-99.99,,,-99.99,MetarLogicWeatherSta,2013-05-18 03:23:00,
2013-05-17 23:28:00,43.5,37.2,30.22,SSE,157,0.0,-999.0,78,-99.99,,,-99.99,MetarLogicWeatherSta,2013-05-18 03:28:00,
2013-05-17 23:33:00,43.5,37.3,30.22,SSE,157,0.0,-999.0,78,-99.99,,,-99.99,MetarLogicWeatherSta,2013-05-18 03:33:00,
2013-05-17 23:38:00,43.1,37.2,30.22,SSE,157,0.0,-999.0,79,-99.99,,,-99.99,MetarLogicWeatherSta,2013-05-18 03:38:00,
2013-05-17 23:43:00,43.0,37.0,30.22,SSE,157,0.0,-999.0,79,-99.99,,,-99.99,MetarLogicWeatherSta,2013-05-18 03:43:00,
2013-05-17 23:48:00,43.1,37.3,30.22,SSE,157,0.0,-999.0,79,-99.99,,,-99.99,MetarLogicWeatherSta,2013-05-18 03:48:00,
2013-05-17 23:53:00,42.7,37.0,30.23,SSE,157,0.0,-999.0,79,-99.99,,,-99.99,MetarLogicWeatherSta,2013-05-18 03:53:00,
2013-05-17 23:58:00,42.5,37.0,30.23,SSE,157,0.0,-999.0,80,-99.99,,,-99.99,MetarLogicWeatherSta,2013-05-18 03:58:00,